Content
SEND FEEDBACK

Daily
Averages
Monthly
Summary
United States of America

ORANGE LAKE, NEW YORK


Home > North America > United States > New York
Elevation: 581 feet     Latitude: 41 47N     Longitude: 074 58W

WEATHER
 
SELECT A DAY
Number of Records: 148,014;   Date Range: 11/1/95 - 7/22/14
 
SHARE

PRINT THIS DATA

[ ← Previous Day ]
WEATHER ALMANAC - OCTOBER 12, 2013
[ Next Day → ]
[ °C ]   °F
Weather ElementAverageHighLow
Temperature64.3 °F71.1 °F (2:51 pm)60.1 °F (6:51 am)
Dewpoint45.9 °F54 °F (8:51 pm)35.1 °F (2:51 pm)
Humidity52.5 %70 % (8:51 pm)27 % (2:51 pm)
Barometer30.19 in30.31 in (10:39 pm)30.09 in (1:51 am)
Wind Speed10.7 mph16.1 mph (12:51 pm)
Wind Gust27.6 mph (4:51 pm)
Weather ElementAverage
Visibility10 mi
Wind DirectionENE (61.4 °)

Weather ElementTotal
Precipitation---
Cooling Degree Days0.6 (Base 65)
Growing Degree Days15.6 (Base 50)
Averaged from 28 records on October 12, 2013
WEATHER CONDITIONS BREAKOUT
WIND DIRECTION BREAKOUT
WEATHER BY HOUR - OCTOBER 12, 2013
[ °C ]   °F
Local TimeTemperatureDewpointHumidityBarometerVisibilityWind DirectionWind SpeedGust SpeedPrecipitationEventsConditions
1:00 AM64.9 °F43.0 °F45 %30.11 in10.0 miNE (50°)8.1 mphOvercast
1:27 AM64.9 °F45.0 °F48 %30.11 in10.0 miEast (80°)9.2 mphOvercast
1:51 AM64.0 °F45.0 °F50 %30.09 in10.0 miVariable6.9 mph16.1 mphMostly Cloudy
2:51 AM63.0 °F43.0 °F48 %30.09 in10.0 miENE (60°)8.1 mphClear
3:51 AM62.1 °F43.0 °F50 %30.10 in10.0 miENE (70°)8.1 mphMostly Cloudy
4:51 AM61.0 °F39.9 °F46 %30.12 in10.0 miVariable6.9 mphScattered Clouds
5:51 AM61.0 °F37.9 °F42 %30.12 in10.0 miVariable6.9 mphOvercast
6:51 AM60.1 °F37.9 °F44 %30.13 in10.0 miENE (60°)9.2 mphPartly Cloudy
7:51 AM60.1 °F37.9 °F44 %30.14 in10.0 miENE (60°)10.4 mphMostly Cloudy
8:51 AM62.1 °F42.1 °F48 %30.16 in10.0 miENE (60°)10.4 mph18.4 mphScattered Clouds
9:51 AM64.0 °F42.1 °F45 %30.17 in10.0 miENE (60°)12.7 mph23.0 mphMostly Cloudy
10:51 AM64.0 °F46.0 °F52 %30.19 in10.0 miEast (80°)10.4 mphClear
11:51 AM64.9 °F48.0 °F54 %30.20 in10.0 miENE (70°)15.0 mph23.0 mphClear
12:51 PM66.9 °F48.9 °F52 %30.18 in10.0 miNE (50°)16.1 mph23.0 mphClear
1:51 PM69.1 °F46.0 °F44 %30.17 in10.0 miENE (70°)13.8 mph24.2 mphClear
2:51 PM71.1 °F35.1 °F27 %30.17 in10.0 miENE (70°)11.5 mph25.3 mphPartly Cloudy
3:51 PM71.1 °F46.0 °F41 %30.19 in10.0 miEast (80°)15.0 mph25.3 mphClear
4:51 PM70.0 °F43.0 °F38 %30.19 in10.0 miEast (100°)16.1 mph27.6 mphClear
5:51 PM68.0 °F48.0 °F49 %30.20 in10.0 miEast (80°)9.2 mph19.6 mphClear
6:51 PM66.0 °F51.1 °F59 %30.22 in10.0 miVariable5.8 mphOvercast
7:51 PM64.9 °F53.1 °F65 %30.25 in10.0 miENE (70°)10.4 mph21.9 mphOvercast
8:51 PM64.0 °F54.0 °F70 %30.26 in10.0 miEast (80°)10.4 mph21.9 mphOvercast
9:51 PM63.0 °F53.1 °F70 %30.28 in10.0 miENE (70°)13.8 mph25.3 mphOvercast
10:39 PM63.0 °F52.0 °F67 %30.31 in10.0 miEast (100°)10.4 mph21.9 mphOvercast
10:51 PM62.1 °F51.1 °F67 %30.29 in10.0 miEast (80°)9.2 mph17.3 mphOvercast
11:24 PM62.1 °F51.1 °F67 %30.31 in10.0 miEast (80°)10.4 mph20.7 mphOvercast
11:39 PM62.1 °F51.1 °F67 %30.31 in10.0 miENE (70°)11.5 mph24.2 mphOvercast
11:51 PM62.1 °F52.0 °F70 %30.29 in10.0 miENE (70°)13.8 mph24.2 mphOvercast
Hourly data recorded from KNYC, located miles away from Orange Lake, New York







STORIES FROM OUR PARTNERS